Regional Weather Roundup
Issued by NWS

Home | Current Version | Previous Version | Graphics & Text | Print | Product List | Glossary On
Versions: 1 2 3 4 5 6 7 8 9 10 11 12 13 14 15 16 17 18 19 20 21 22 23 24 25 26 27 28 29 30 31 32 33 34 35 36 37 38 39 40 41 42 43 44 45 46 47 48 49 50
921
ASUS44 KJAN 171703
RWRMS

MISSISSIPPI HOURLY WEATHER ROUNDUP
NATIONAL WEATHER SERVICE JACKSON MS
1100 AM CST WED DEC 17 2014

NOTE: "FAIR: INDICATES FEW OR NO CLOUDS BELOW 12,000 FEET WITH NO
SIGNIFICANT WEATHER AND/OR OBSTRUCTIONS TO VISIBILITY.

MSZ001>002-007>008-010>013-018>021-025>028-034>036-171800-
NORTHWEST MISSISSIPPI

CITY           SKY/WX    TMP DP  RH WIND       PRES   REMARKS
CLARKSDALE     FAIR      39  36  87 CALM      30.35F
CLEVELAND      FAIR      41  35  80 CALM      30.34F
GREENWOOD      MOSUNNY   45  36  70 CALM      30.32F
GREENVILLE     MOSUNNY   43  34  70 NE6       30.34F
GRENADA        FAIR      43  36  75 CALM      30.33F
OLIVE BRANCH   PTSUNNY   37  36  93 E3        30.33F
OXFORD         FAIR      37  32  81 NE5       30.33F WCI  34
TUNICA         CLOUDY    37  34  87 NE3       30.35F
$$

MSZ003>006-009-014>017-022>024-029>033-037>039-171800-
NORTHEAST MISSISSIPPI

CITY           SKY/WX    TMP DP  RH WIND       PRES   REMARKS
COLUMBUS AFB   CLOUDY    47  37  68 VRB1      30.32S
CORINTH        CLOUDY    43  34  70 VRB3      30.31F
GOLDN TRIANGLE MOSUNNY   46  37  71 N5        30.31F
STARKVILLE     FAIR      45  37  76 NE3       30.31F
TUPELO         CLOUDY    43  34  70 CALM      30.33R
$$

MSZ040-058-171800-
CENTRAL MISSISSIPPI

CITY           SKY/WX    TMP DP  RH WIND       PRES   REMARKS
JACKSON INTL   PTSUNNY   49  38  65 VRB5      30.32F
JACKSON HAWKNS SUNNY     48  38  68 E5        30.31F
MERIDIAN KEY   SUNNY     50  36  58 VRB6      30.30F
MERIDIAN NAS   PTSUNNY   50  36  58 VRB5      30.30F
RAYMOND        FAIR      48  45  87 CALM      30.32F
VICKSBURG      MOSUNNY   47  37  68 E5        30.33F
$$

MSZ059>079-171800-
SOUTH MISSISSIPPI

CITY           SKY/WX    TMP DP  RH WIND       PRES   REMARKS
HATTIESBURG    SUNNY     51  38  60 CALM      30.30F
MCCOMB         CLOUDY    50  37  61 E7        30.30F
NATCHEZ        PTSUNNY   48  37  66 E6        30.31F
PINE BELT      SUNNY     52  36  54 NE3       30.31F
$$

MSZ080>082-171800-
COASTAL MISSISSIPPI

CITY           SKY/WX    TMP DP  RH WIND       PRES   REMARKS
BAY ST LOUIS   SUNNY     55  34  44 VRB5      30.28F
BILOXI         MOSUNNY   55  39  54 N6        30.28F
PASCAGOULA     SUNNY     56  38  50 VRB3      30.29F
GULFPORT       MOSUNNY   55  38  52 NE5       30.28F
$$



USA.gov is the U.S. government's official web portal to all federal, state and local government web resources and services.